Regional Weather Roundup
Issued by NWS Wakefield, VA

Home | Current Version | Previous Version | Text Only | Print | Product List | Glossary Off
Versions: 1 2 3 4 5 6 7 8 9 10 11 12 13 14 15 16 17 18 19 20 21 22 23 24 25 26 27 28 29 30 31 32 33 34 35 36 37 38 39 40 41 42 43 44 45 46 47 48

000
ASUS41 KAKQ 081715
RWRAKQ

REGIONAL WEATHER ROUNDUP
NATIONAL WEATHER SERVICE WAKEFIELD VA
1200 PM EST MON FEB 08 2016

Note: "fair" indicates few or no clouds below 12,000 feet with no
significant weather and/or obstructions to visibility. * = Denotes
station may not report precipitation (e.g., rain,snow,etc.),
thunder or fog.

VAZ042-051-052>054-056-081800-
NORTHERN VIRGINIA

CITY           SKY/WX    TMP DP  RH WIND       PRES   REMARKS
WASH NATIONAL  PTSUNNY   44  28  53 CALM      29.76F
DULLES         PTSUNNY   45  26  47 VRB6      29.74F
FORT BELVOIR   FAIR      45  27  49 SE8       29.74F
QUANTICO       FAIR      44  26  49 S3        29.77F
FREDERICKSBRG* FAIR      44  26  49 CALM      29.75F
STAFFORD*      FAIR      45  27  49 SE7       29.79F
WARRENTON      FAIR      46  28  50 CALM      29.74F
CULPEPER*      FAIR      42  23  47 S3        29.76F
MANASSAS*      SUNNY     45  27  49 SE3       29.76F
LEESBURG*      FAIR      45  28  53 CALM      29.75F
WINCHESTER     FAIR      43  25  49 S3        29.72F
FRONT ROYAL*   FAIR      43  25  49 N5        29.71F
LURAY*         FAIR      43  25  49 CALM      29.71F
$$

VAZ048-049-060>072-079>083-081800-
CENTRAL AND SOUTH CENTRAL VIRGINIA

CITY           SKY/WX    TMP DP  RH WIND       PRES   REMARKS
RICHMOND       PTSUNNY   45  27  49 CALM      29.75F
CHESTERFIELD*  FAIR     N/A N/A N/A CALM      29.77F
PETERSBURG*    FAIR      47  15  28 CALM      29.77F
HANOVER        FAIR      46  24  42 S3        29.77F
TAPPAHANNOCK*  FAIR      46  28  49 E5        29.76F
QUINTON*       FAIR      45  29  52 CALM      29.75F
CHARLOTTSVILLE FAIR      44  21  40 CALM      29.74F
GORDONSVILLE*  FAIR      44  21  40 CALM      29.73F
ORANGE*        FAIR      45  23  42 CALM      29.76F
LOUISA*        FAIR      45  21  39 CALM      29.73F
BUMPASS*       FAIR      45  23  41 S5        29.75F
FARMVILLE*     FAIR      48  19  32 CALM      29.75F
CREWE*         FAIR      46  21  37 CALM      29.75F
FORT PICKETT*  FAIR      46  20  35 S3        29.76F
CHASE CITY*    FAIR      47  20  35 CALM      29.76F
CLARKSVILLE*   FAIR      46  25  42 CALM      29.76F
SOUTH HILL*    FAIR      46  24  41 CALM      29.81F
LAWRENCEVILLE* FAIR      46  23  40 CALM      29.76F
EMPORIA*       FAIR      45  23  42 SW5       29.79F
$$

VAZ088>098-081800-
SOUTHEAST VIRGINIA

CITY           SKY/WX    TMP DP  RH WIND       PRES   REMARKS
NORFOLK        FAIR      44  31  60 NW8       29.77F
VIRGINIA BEACH FAIR      48  33  56 N8        29.76F
NORFOLK NAVAL  FAIR      45  31  58 N8        29.78F
WEST POINT*    FAIR      46  28  51 SW5       29.78F
SALUDA*        FAIR      43  30  61 CALM      29.77F
NEWPORT NEWS   FAIR      45  32  60 E7        29.76F
LANGLEY AFB    MOSUNNY   44  32  62 NE8       29.76F
FORT EUSTIS    FAIR      46  27  48 W3        29.75F
WILLIAMSBURG*  FAIR      48  32  53 CALM      29.77F
HR EXEC AP*    FAIR      46  30  53 CALM      29.78F
FRANKLIN*      FAIR      46  29  52 CALM      29.77F
US460-WAKEFLD  FAIR      47  28  47 CALM      29.76F
$$

VAZ020-022-025-037-045-081800-
WEST CENTRAL AND SOUTHWEST VIRGINIA

CITY           SKY/WX    TMP DP  RH WIND       PRES   REMARKS
STAUNTON*      FAIR      46  28  49 SE5       29.73
WAYNESBORO*    FAIR      41  21  44 SE12G17   29.70F
HOT SPRINGS VA FLURRIES  33  22  62 SE3       29.60F
LYNCHBURG      FAIR      44  24  45 S9        29.74F
DANVILLE       PTSUNNY   49  27  42 SW5       29.74F
SOUTH BOSTON*  FAIR      48  24  38 CALM      29.75F
MARTINSVILLE   CLOUDY    40  28  62 CALM      29.74F
ROANOKE        CLOUDY    40  27  59 VRB3      29.73F
BLACKSBURG     CLOUDY    38  28  66 NW3       29.71S
DUBLIN*        CLOUDY    37  29  75 CALM      29.69F
MARION*        SNOW      34  31  89 W12       29.70S VSB 1/2
HILLSVILLE*    CLOUDY    40  22  49 S7        29.64F
RICHLANDS*     LGT SNOW  32  28  85 S7G18     29.66S
WISE*          FAIR      41  23  48 SW14      29.65F
ABINGDON*      LGT SNOW  35  32  89 W8        29.70F
$$

MDZ021>025-VAZ099-100-081800-
SOUTHERN MARYLAND AND THE DELMARVA PENINSULA

CITY           SKY/WX    TMP DP  RH WIND       PRES   REMARKS
PATUXENT RIVER MOSUNNY   44  29  55 VRB3      29.76F
BAY BRIDGE APT   N/A     43  28  56 CALM      29.76F
LEONARDTOWN    MOSUNNY   43  28  56 CALM      29.77F
DOVER          CLOUDY    42  32  66 N10       29.73F
GEORGETOWN     CLOUDY    43  32  65 NE13      29.74F
EASTON         MOSUNNY   45  30  57 E12       29.79F
CAMBRIDGE      MOSUNNY   43  30  61 NE3       29.74F
SALISBURY      CLOUDY    42  32  67 NE7       29.74F
OCEAN CITY     CLOUDY    43  34  70 NE13G24   29.74S
WALLOPS ISLAND CLOUDY    43  32  65 N5        29.75S
ACCOMACK*      CLOUDY    43  30  61 NE6       29.75F
$$

NCZ012>017-030>032-081800-
NORTH CENTRAL AND EASTERN NORTH CAROLINA

CITY           SKY/WX    TMP DP  RH WIND       PRES   REMARKS
ROANOKE RAPIDS FAIR      46  27  46 CALM      29.78F
RALEIGH        PTSUNNY   51  28  41 CALM      29.77F
ELIZABETH CITY SUNNY     47  33  58 N7        29.77F
AHOSKIE*       MOSUNNY   46  26  46 CALM      29.76F
EDENTON*       SUNNY     47  32  56 W5        29.78F
CURRITUCK*     SUNNY     46  33  61 CALM      29.78F
KILL DEVIL HLS SUNNY     48  33  55 NW5       29.76F
MANTEO         SUNNY     45  34  65 NW9       29.78F
CAPE HATTERAS  SUNNY     47  33  58 NW8       29.79F
TARBORO*       FAIR      49  26  41 SW3       29.79F
GOLDSBORO      SUNNY     50  28  43 VRB2      29.77F
WASHINGTON     SUNNY     47  29  48 CALM      29.79F
GREENVILLE     SUNNY     48  27  43 CALM      29.81F
NEW BERN       SUNNY     51  28  41 W5        29.82F
WILMINGTON     SUNNY     53  30  41 MISG      29.82F
$$

VAZ048-081800-
ELSEWHERE

CITY           SKY/WX    TMP DP  RH WIND       PRES   REMARKS
HARRISBURG PA  MOSUNNY   40  26  57 E8        29.74F
BALTIMORE      PTSUNNY   42  28  57 E7        29.75F
ANNAPOLIS      SUNNY     42  28  57 NW6       29.76F
ANDREWS AFB    FAIR      42  29  58 VRB2      29.73F
PHILADELPHIA   CLOUDY    44  27  51 NE10      29.75F
HENDERSON NC   MOSUNNY   49  23  36 CALM      29.75F
GREENSBORO     CLOUDY    48  23  37 S12       29.72F
ROCKY MOUNT    SUNNY     49  24  37 CALM      29.78F
$$

VAZ100-081800-
MARINE

STATION/POSITION TIME  TEMP    WIND        PRES    WAVE   SWELL
                       AIR SEA DIR/SP/G            HT/PER HT/PER
                 (UTC) (F)     (DEG/KT/KT) (MB)    (FT/S) (FT/S)
BRANDYWINE LGT   1600   39      20/ 11/ 13 1007.5F
CAPE MAY NJ      1600   41 42   40/  9/ 12 1006.9F
LEWES DE         1600   39 41   10/ 10/ 11 1007.5F
15NM E FENWICK I 1650   39 44              1005.9F  15/14
OCEAN-CITY-INLET 1600   40 41   30/ 10/ 23 1006.5F
WACHAPREAGUE VA  1600   43 42   20/  7/ 10 1007.6R
THOMAS POINT MD  1700   39 38  340/  7/  7 1008.4
GOOSES REEF MD   1700   39 40  340/ 10/ 12 1008.9F   1/ 2
COVE POINT MD    1600   38     360/ 12/ 13 1008.8F
SOLOMONS ISLAND  1600   41 41   20/  5/  9   N/A
BISHOPS HEAD MD  1600   42 40   20/  6/ 10 1006.8F
POTOMAC MD       1700   43 41   CALM  /  2 1006.9F   1
CAMBRIDGE MD     1600   41 40   40/  5/ 10 1007.0F
LEWISETTA VA     1600   41 41  330/  4/  6 1008.1S
RAPPAHANNOCK LGT 1600          340/ 11/ 14 1008.3R
STINGRAY PT      1700   42 42  320/  4/  6 1007.9F   1/ 3
YORK RVR RNG VA  1600   41     330/  5/  6 1008.1R
YORKTOWN VA      1600   42 42   50/  5/  8 1008.5R
JAMESTOWN VA     1700   42 44  160/  6/  6   N/A     0
DOMINION TERM VA 1600   42      20/  5/  8 1008.7R
KIPTOPEKE VA     1600      42  330/ 13/ 15   N/A
CHES BAY BRIDGE  1600   41 43  320/ 11/ 13 1008.3R
CAPE HENRY VA    1600   40     340/ 13/ 15   N/A
CHESAPEAKE LGHT  1600   41     330/ 14/ 15 1008.7R
WILLOUBY STN VA  1600   41      10/  8/ 10   N/A
CAPE HENRY BUOY  1658      46                N/A     8/11   5/11
1ST LANDING BUOY 1700      43                N/A     6/ 7
CAPE CHARLES BUO 1656      44                N/A     8/13   8/13
OFFSHORE WE BUOY 1651      47                N/A    10/12  10/12
64NM E OF VA BCH 1650   44 53  330/ 19/ 25 1006.2R  16/13  13/13
DUCK PIER NC     1600   42     340/ 12/ 17 1008.0R
44100 DUCK FRF   1654      47                N/A    13/13  10/13
44056 DUCK FRF   1611      44                N/A    10/13   8/13
OREGON INLET NC  1600   42 45  300/ 12/ 15 1008.7R
HATTERAS NC      1600   42 50  300/ 14/ 18 1008.9R
DIAMOND SHLS NC  1650   43 53  310/ 14/ 17 1009.1R  19/16  18/16
$$



USA.gov is the U.S. government's official web portal to all federal, state and local government web resources and services.